EW4036 Weather Reports


Display with metric or nautical units.
time (UTC)temp
F
wind
direction
speed
MPH
gust
MPH
rain 1hr
in
rain 24hr
in
rain mn
in
humidity
%
barometer
mb
20260903091605 57 246 8.0 16.0 0.00 0.00 0.00 69 1007.0
20260903090008 57 247 10.0 14.0 0.00 0.00 0.00 71 1007.1
20260903084507 56 266 9.0 15.0 0.00 0.00 0.00 72 1007.3
20260903083008 55 252 11.0 16.0 0.00 0.00 0.00 74 1007.3
20260903081505 55 261 10.0 15.0 0.00 0.00 0.00 76 1007.3
20260903080006 54 227 9.0 18.0 0.00 0.00 0.00 76 1007.2
20260903074604 54 271 7.0 13.0 0.00 0.00 0.00 78 1007.4
20260903073006 54 224 11.0 19.0 0.00 0.00 0.00 78 1007.3
20260903071508 54 225 8.0 13.0 0.00 0.00 0.00 79 1007.3
20260903070012 53 236 7.0 12.0 0.00 0.00 0.00 80 1007.3
20260903064507 52 197 4.0 10.0 0.00 0.00 0.00 81 1007.5
20260903063011 51 214 7.0 11.0 0.00 0.00 0.00 82 1007.4
20260903061508 50 237 5.0 10.0 0.00 0.00 0.00 83 1007.6
20260903060005 50 200 7.0 11.0 0.00 0.00 0.00 84 1007.6
20260903054505 49 211 5.0 10.0 0.00 0.00 0.00 86 1007.5
20260903053016 48 190 6.0 12.0 0.00 0.00 0.00 87 1007.6
20260903051508 48 205 6.0 11.0 0.00 0.00 0.00 88 1007.5
20260903050011 47 209 6.0 12.0 0.00 0.00 0.00 89 1007.4
20260903044605 47 198 5.0 8.0 0.00 0.00 0.00 89 1007.5
20260903043208 47 184 5.0 10.0 0.00 0.00 0.00 89 1007.4
20260903041510 47 194 5.0 8.0 0.00 0.00 0.00 89 1007.6
20260903040015 47 203 6.0 8.0 0.00 0.00 0.00 89 1007.6
20260903034604 47 193 5.0 7.0 0.00 0.00 0.00 89 1007.6
20260903033015 47 197 6.0 8.0 0.00 0.00 0.00 90 1007.3
20260903031510 48 212 6.0 11.0 0.00 0.00 0.00 90 1007.3
20260903030010 48 195 7.0 12.0 0.00 0.00 0.00 90 1007.2
20260903024507 49 202 6.0 10.0 0.00 0.00 0.00 90 1007.4
20260903023010 49 204 6.0 13.0 0.00 0.00 0.00 90 1007.5
20260903021513 49 187 6.0 10.0 0.00 0.00 0.00 91 1007.6
20260903020012 49 217 6.0 9.0 0.00 0.00 0.00 91 1007.7
20260903014505 49 168 6.0 11.0 0.00 0.00 0.00 91 1007.7
20260903013008 49 227 5.0 10.0 0.00 0.00 0.00 91 1007.8
20260903011514 49 206 5.0 10.0 0.00 0.00 0.00 90 1007.7
20260903010106 50 200 7.0 10.0 0.00 0.00 0.00 90 1007.7
20260903004607 50 207 7.0 10.0 0.00 0.00 0.00 90 1007.8
20260903003104 50 205 6.0 10.0 0.00 0.00 0.00 90 1007.8
20260903001504 50 217 7.0 13.0 0.00 0.00 0.00 89 1007.8
20260903000106 50 218 6.0 12.0 0.00 0.00 0.00 89 1007.7
20260902234505 51 213 6.0 12.0 0.00 0.00 0.00 89 1007.6
20260902233007 51 183 8.0 12.0 0.00 0.00 0.00 89 1007.8
20260902231505 51 203 9.0 14.0 0.00 0.00 0.00 89 1007.9
20260902230010 51 210 6.0 13.0 0.00 0.00 0.00 88 1007.9
20260902224613 51 197 8.0 14.0 0.00 0.00 0.00 88 1008.0
20260902223020 51 200 7.0 11.0 0.00 0.00 0.00 88 1008.0
20260902221606 51 186 6.0 14.0 0.00 0.00 0.00 88 1008.0
20260902220008 52 190 8.0 12.0 0.00 0.00 0.00 88 1008.1
20260902214604 52 204 8.0 10.0 0.00 0.00 0.00 87 1008.1
20260902213007 52 194 6.0 9.0 0.00 0.00 0.00 86 1008.2
20260902211505 52 166 6.0 11.0 0.00 0.00 0.00 85 1008.2
20260902210007 53 225 7.0 12.0 0.00 0.00 0.00 85 1008.2
20260902204512 53 190 6.0 10.0 0.00 0.00 0.00 84 1008.2
20260902203108 53 211 7.0 10.0 0.00 0.00 0.00 83 1008.3
20260902201608 53 188 4.0 7.0 0.00 0.00 0.00 82 1008.2
20260902200008 53 198 3.0 8.0 0.00 0.00 0.00 80 1008.3
20260902194508 54 184 4.0 7.0 0.00 0.00 0.00 79 1008.2
20260902193006 55 205 3.0 8.0 0.00 0.00 0.00 77 1008.3
20260902191609 55 230 4.0 9.0 0.00 0.00 0.00 76 1008.3
20260902190009 56 221 7.0 14.0 0.00 0.00 0.00 75 1008.3
20260902184603 56 221 4.0 8.0 0.00 0.00 0.00 73 1008.2
20260902183004 57 233 6.0 12.0 0.00 0.00 0.00 71 1008.1
20260902181505 57 228 7.0 15.0 0.00 0.00 0.00 72 1008.0
20260902180008 58 219 6.0 11.0 0.00 0.00 0.00 72 1007.9
20260902174504 59 239 7.0 13.0 0.00 0.00 0.00 71 1007.8
20260902173005 59 243 7.0 11.0 0.00 0.00 0.00 70 1007.8
20260902171506 60 223 7.0 15.0 0.00 0.00 0.00 68 1007.8
20260902170008 60 233 9.0 20.0 0.00 0.00 0.00 67 1007.8
20260902164507 61 259 12.0 18.0 0.00 0.00 0.00 64 1007.8
20260902163008 61 246 8.0 17.0 0.00 0.00 0.00 64 1007.8
20260902161508 62 254 12.0 18.0 0.00 0.00 0.00 62 1007.8
20260902160012 62 254 10.0 22.0 0.00 0.00 0.00 62 1007.7
20260902154503 62 270 11.0 21.0 0.00 0.00 0.00 60 1007.8
20260902153008 63 263 15.0 19.0 0.00 0.00 0.00 59 1007.8
20260902151507 63 240 7.0 15.0 0.00 0.00 0.00 61 1007.8
20260902150008 63 242 10.0 19.0 0.00 0.00 0.00 59 1007.9
20260902144507 63 244 10.0 16.0 0.00 0.00 0.00 59 1008.0
20260902143003 64 255 12.0 20.0 0.00 0.00 0.00 58 1008.0
20260902141506 64 234 12.0 24.0 0.00 0.00 0.00 56 1008.0
20260902140008 64 266 15.0 22.0 0.00 0.00 0.00 57 1008.2
20260902134504 64 250 11.0 22.0 0.00 0.00 0.00 57 1008.3
20260902133008 64 241 13.0 23.0 0.00 0.00 0.00 58 1008.3
20260902131505 64 250 14.0 23.0 0.00 0.00 0.00 58 1008.3
20260902130005 64 253 15.0 23.0 0.00 0.00 0.00 58 1008.2
20260902124604 63 257 12.0 26.0 0.00 0.00 0.00 58 1008.3
20260902123006 63 244 15.0 23.0 0.00 0.00 0.00 58 1008.3
20260902121503 63 257 15.0 25.0 0.00 0.00 0.00 57 1008.3
20260902120006 63 221 13.0 26.0 0.00 0.00 0.00 56 1008.4
20260902114603 63 246 10.0 23.0 0.00 0.00 0.00 57 1008.3
20260902113009 64 248 15.0 26.0 0.00 0.00 0.00 55 1008.3
20260902111604 64 253 19.0 27.0 0.00 0.00 0.00 59 1008.2
20260902110014 63 225 14.0 24.0 0.00 0.00 0.00 61 1008.2
20260902104507 64 249 11.0 22.0 0.00 0.00 0.00 65 1008.0
20260902103005 63 229 13.0 20.0 0.00 0.00 0.00 67 1008.0
20260902101623 63 231 13.0 19.0 0.00 0.00 0.00 69 1008.1
20260902100008 64 219 16.0 22.0 0.00 0.00 0.00 67 1008.0
20260902094605 64 227 16.0 24.0 0.00 0.00 0.00 70 1008.1
20260902093104 64 242 12.0 19.0 0.00 0.00 0.00 72 1008.1